Temp
84 85 86 78 62 62 62 72 81 79 80 86 89 84 79 80 77 62 83 84 82 81 82 83 83 84 84 84 83 83 83 84 83 83 84 84 84 84 84 84 84 85 85 85 85 85 85 84 84
89 91 78 74 60 60 64 79 77 81 86 87 88 85 80 73 82 79 79 83 83 82 81 82 83 83 83 83 83 83 84 84 84 84 84 84 84 84 84 84 84 84 85 85 85 85 85 84 84
86 89 72 66 67 62 67 80 81 87 91 90 84 88 83 76 82 80 84 85 84 82 82 82 83 83 84 83 83 83 84 84 84 84 84 84 84 84 84 84 84 84 84 84 85 85 85 84 84
89 77 74 67 71 76 78 80 85 87 90 88 86 79 86 90 86 86 88 87 84 83 82 83 83 84 84 84 83 83 84 83 84 84 84 84 84 84 84 84 84 84 84 84 84 84 84 84 84
85 78 65 66 73 84 87 90 89 86 85 84 85 78 79 88 92 91 89 89 85 80 81 82 83 83 83 83 83 84 84 84 84 84 84 84 84 84 84 84 84 84 84 84 84 84 84 84 84
70 70 64 64 77 83 88 91 90 88 85 84 82 79 77 89 89 91 91 87 84 80 81 82 83 83 83 84 84 84 84 84 84 84 84 84 84 84 83 83 84 84 84 84 84 84 84 84 84
70 66 67 73 80 81 88 94 88 87 86 84 87 75 77 84 89 91 91 85 84 83 81 80 80 82 84 84 84 84 84 84 84 84 84 84 84 84 83 84 84 83 83 84 84 84 84 84 84
73 70 71 79 77 77 91 94 93 89 87 93 90 75 73 84 90 90 90 86 84 82 81 79 79 80 79 80 84 84 83 84 84 84 84 84 84 84 84 83 83 84 84 84 84 84 84 84 84
88 71 66 78 77 82 91 88 94 95 91 92 92 86 87 91 91 87 87 86 83 83 81 81 79 79 79 79 82 83 84 84 84 83 84 83 78 80 81 82 83 84 84 84 84 84 84 83 83
71 65 75 90 88 86 93 90 91 91 88 85 86 89 91 91 88 85 83 83 82 81 82 83 81 80 80 85 81 79 80 79 78 79 78 78 79 77 83 83 84 84 84 84 84 84 84 83 76
75 69 87 90 94 94 93 90 95 87 82 84 81 85 88 88 86 85 85 85 86 86 85 84 84 84 83 85 80 79 80 79 79 78 78 79 81 81 81 78 82 80 83 80 82 81 78 77 75
72 86 86 91 94 92 92 94 91 89 87 91 89 88 88 86 85 86 84 86 86 88 89 87 87 86 86 82 80 81 81 81 80 80 80 78 78 77 79 79 79 78 78 78 78 77 73 76 76
70 80 93 93 93 92 93 86 88 89 93 93 91 90 86 85 85 87 88 89 87 86 87 89 87 86 86 81 82 82 84 83 83 81 81 79 79 78 82 83 82 81 81 79 77 76 73 74 76
82 86 88 93 91 91 87 86 89 90 92 91 89 86 86 86 87 86 87 87 86 86 87 86 87 83 83 81 80 80 82 84 83 81 80 80 80 79 79 80 81 80 82 84 81 76 75 77 77
88 80 84 86 85 85 87 79 81 88 90 88 87 86 87 87 88 87 87 87 86 86 88 84 83 84 82 81 81 80 80 84 81 82 81 80 79 79 80 79 79 80 81 80 78 77 77 74 75
81 75 65 83 87 83 80 66 78 86 84 84 87 88 88 87 88 88 88 88 86 87 85 86 92 83 81 80 79 80 80 79 80 80 81 82 81 80 79 79 78 80 79 83 80 80 75 75 75
71 65 68 73 85 83 79 67 77 84 84 84 84 85 86 85 86 87 90 89 88 86 84 83 83 83 81 79 79 79 79 79 80 80 80 82 82 82 79 78 78 79 79 79 81 81 80 81 76
66 71 73 72 83 83 74 73 81 83 85 83 84 84 84 85 85 87 89 91 89 85 84 84 83 82 82 80 79 78 78 79 79 80 80 81 83 82 79 79 78 79 77 78 78 79 79 79 79
82 76 68 79 88 83 77 78 80 84 83 85 83 82 83 84 88 89 90 91 90 86 83 82 82 79 81 79 78 75 79 78 79 81 83 82 82 82 80 79 79 78 76 77 79 77 77 75 75
82 77 75 83 90 84 78 74 82 84 87 87 86 85 86 85 85 88 88 88 89 86 85 82 82 80 82 82 82 79 80 80 83 83 85 85 81 83 82 80 78 77 75 75 76 75 75 74 75
79 75 75 78 86 86 80 70 79 86 88 90 90 89 89 88 87 88 89 88 89 87 85 85 85 84 83 81 82 79 79 79 78 79 81 84 82 80 82 81 79 77 76 75 77 77 73 77 75
66 86 86 88 76 67 78 61 70 78 80 86 89 89 89 90 91 89 89 88 91 89 89 87 86 85 85 84 83 80 81 79 79 80 80 80 82 81 80 79 79 80 79 78 75 78 76 73 76
80 88 86 85 70 66 66 59 68 77 75 80 84 88 89 91 92 90 90 92 93 94 90 89 86 85 86 84 85 81 78 81 79 80 80 80 82 83 82 81 80 79 78 79 78 77 73 72 72
93 87 83 73 68 56 65 63 64 69 76 80 85 89 91 91 94 93 94 94 93 95 94 90 85 85 85 84 83 82 82 79 77 78 76 77 78 77 78 80 81 80 79 77 78 76 74 74 71
88 74 62 56 57 57 70 63 69 78 84 86 86 87 90 91 91 89 92 92 92 92 93 91 85 84 84 83 82 82 79 77 76 76 75 75 75 76 77 78 78 78 79 76 75 75 75 75 72
78 73 63 54 59 59 74 62 74 84 86 88 89 90 92 90 89 89 95 93 89 89 89 87 86 84 82 82 80 80 79 79 77 77 75 74 74 75 77 76 76 76 76 76 75 74 74 74 73
78 68 78 66 69 58 68 73 80 84 84 87 88 91 89 90 90 84 85 92 86 84 91 88 84 83 82 82 80 77 77 77 76 76 76 75 76 77 77 76 76 76 75 74 74 75 74 73 73
76 82 68 66 55 54 61 65 66 73 78 84 83 85 83 86 86 79 79 80 80 85 88 84 83 81 79 78 77 77 77 77 76 76 76 75 75 75 75 75 75 74 74 74 74 73 74 73 73
75 71 70 68 64 57 59 60 76 77 81 82 83 84 84 85 85 84 79 79 80 85 79 82 82 79 78 77 77 77 77 77 77 76 76 75 75 75 75 74 73 72 73 73 72 72 72 72 72
78 72 70 61 61 62 60 62 82 81 85 84 83 84 84 86 86 86 85 82 80 80 79 79 77 78 77 77 77 77 76 77 76 75 75 75 75 75 74 73 73 72 71 72 72 71 71 70 70
MSLP
1007.58 1007.22 1006.64 1006.64 1007.99 1008.49 1006.24 1004.53 1003.42 1003.41 1003.38 1003.42 1003.85 1004.63 1006.08 1006.51 1007.40 1009.64 1010.52 1011.24 1012.42 1013.13 1013.60 1014.04 1014.42 1014.73 1015.19 1015.33 1015.73 1015.88 1016.12 1016.38 1016.59 1016.78 1017.08 1017.24 1017.51 1017.72 1017.86 1018.03 1018.12 1018.21 1018.36 1018.47 1018.69 1018.96 1019.00 1019.11 1019.14
1006.63 1007.12 1008.36 1008.14 1008.34 1007.32 1005.83 1004.02 1003.60 1003.46 1003.39 1003.59 1004.13 1004.99 1006.09 1007.61 1007.93 1009.32 1010.62 1011.58 1012.32 1012.95 1013.60 1014.21 1014.56 1014.87 1015.24 1015.36 1015.74 1015.93 1016.17 1016.43 1016.62 1016.82 1017.02 1017.22 1017.48 1017.73 1017.89 1018.04 1018.16 1018.32 1018.42 1018.48 1018.63 1018.87 1018.91 1018.96 1018.96
1006.56 1006.76 1007.29 1007.22 1006.15 1005.46 1004.54 1003.70 1003.30 1003.14 1003.13 1003.33 1004.35 1004.78 1006.30 1007.90 1008.63 1009.70 1010.79 1011.59 1012.30 1013.16 1013.71 1014.25 1014.60 1014.87 1015.17 1015.46 1015.74 1015.96 1016.21 1016.45 1016.62 1016.86 1017.00 1017.21 1017.38 1017.63 1017.80 1017.95 1018.13 1018.33 1018.45 1018.46 1018.50 1018.67 1018.72 1018.82 1018.79
1006.06 1007.25 1006.60 1005.99 1004.80 1003.68 1003.12 1003.02 1002.86 1003.01 1003.28 1003.99 1004.49 1006.06 1006.84 1007.43 1008.19 1009.29 1010.58 1011.56 1012.37 1013.12 1013.80 1014.22 1014.58 1014.86 1015.12 1015.44 1015.74 1016.00 1016.26 1016.43 1016.62 1016.82 1017.01 1017.24 1017.38 1017.46 1017.62 1017.77 1017.97 1018.22 1018.33 1018.41 1018.38 1018.46 1018.65 1018.64 1018.66
1005.18 1005.74 1006.18 1005.15 1003.84 1002.88 1002.31 1002.15 1002.32 1002.98 1004.01 1004.86 1005.27 1006.93 1007.34 1007.70 1008.21 1009.28 1010.20 1011.04 1012.04 1013.36 1013.86 1014.40 1014.67 1014.90 1015.18 1015.40 1015.65 1016.00 1016.27 1016.43 1016.60 1016.76 1016.93 1017.10 1017.24 1017.32 1017.41 1017.53 1017.81 1017.99 1018.19 1018.33 1018.30 1018.39 1018.56 1018.67 1018.48
1006.67 1007.52 1006.58 1004.87 1003.57 1002.78 1002.02 1001.75 1002.15 1002.86 1003.96 1005.28 1005.92 1006.97 1008.16 1008.33 1008.56 1009.20 1009.88 1010.91 1011.85 1012.97 1013.74 1014.24 1014.62 1014.94 1015.22 1015.41 1015.69 1015.98 1016.21 1016.38 1016.53 1016.63 1016.78 1016.92 1017.01 1017.11 1017.23 1017.34 1017.56 1017.78 1017.98 1018.05 1018.14 1018.21 1018.41 1018.62 1018.57
1007.64 1007.67 1006.45 1004.36 1003.29 1002.64 1001.96 1001.48 1001.82 1002.66 1003.69 1004.73 1005.67 1007.29 1008.42 1008.73 1008.83 1008.95 1009.75 1010.92 1011.78 1012.51 1013.18 1013.97 1014.60 1014.96 1015.22 1015.46 1015.68 1015.91 1016.10 1016.27 1016.41 1016.56 1016.65 1016.76 1016.82 1016.95 1017.04 1017.16 1017.38 1017.61 1017.69 1017.80 1017.97 1018.16 1018.27 1018.44 1018.57
1007.42 1007.69 1005.84 1003.65 1002.94 1002.35 1001.61 1001.62 1002.00 1002.56 1003.31 1004.27 1004.91 1006.65 1007.93 1008.34 1008.66 1008.89 1009.86 1010.86 1011.60 1012.54 1013.24 1013.57 1014.03 1014.42 1014.86 1015.17 1015.33 1015.61 1015.85 1016.04 1016.19 1016.36 1016.53 1016.55 1016.66 1016.77 1016.86 1016.99 1017.14 1017.22 1017.30 1017.53 1017.82 1018.12 1018.34 1018.47 1018.47
1006.22 1006.52 1004.95 1003.36 1002.33 1001.85 1001.42 1001.59 1002.02 1002.36 1003.09 1003.61 1004.23 1005.59 1006.98 1007.87 1008.50 1008.98 1009.88 1010.96 1011.78 1012.47 1012.88 1013.29 1013.77 1014.20 1014.52 1014.90 1015.16 1015.36 1015.54 1015.71 1015.91 1016.05 1016.18 1016.33 1016.48 1016.53 1016.63 1016.75 1017.00 1016.93 1016.93 1017.24 1017.61 1018.04 1018.23 1018.27 1018.16
1006.70 1006.28 1004.60 1002.09 1001.46 1001.24 1001.00 1001.37 1001.97 1002.53 1003.42 1004.54 1005.49 1006.53 1007.34 1007.93 1008.62 1009.07 1009.58 1010.71 1011.41 1011.99 1012.52 1012.89 1013.34 1013.72 1014.16 1014.28 1014.73 1015.22 1015.43 1015.58 1015.71 1015.86 1016.04 1016.16 1016.14 1016.12 1016.24 1016.42 1016.73 1016.67 1016.68 1017.00 1017.38 1017.61 1017.63 1017.64 1017.72
1006.42 1005.38 1003.10 1002.02 1001.24 1001.04 1000.86 1001.28 1001.73 1002.46 1003.61 1004.54 1005.66 1006.64 1007.48 1008.16 1008.72 1009.18 1009.46 1009.81 1010.59 1011.08 1011.81 1012.39 1012.79 1013.04 1013.50 1013.67 1014.38 1014.87 1015.08 1015.27 1015.44 1015.50 1015.68 1015.84 1015.84 1015.75 1015.99 1016.32 1016.48 1016.63 1016.53 1016.73 1017.00 1017.02 1017.45 1017.36 1017.50
1007.27 1004.40 1003.55 1001.97 1001.28 1001.00 1000.89 1001.64 1002.03 1002.46 1003.51 1004.37 1005.57 1006.44 1007.40 1008.15 1008.67 1008.98 1009.24 1009.57 1009.82 1010.52 1010.94 1011.67 1012.16 1012.59 1012.82 1013.28 1013.84 1014.05 1014.49 1014.72 1015.01 1015.10 1015.25 1015.51 1015.56 1015.70 1015.70 1015.88 1016.31 1016.48 1016.33 1016.45 1016.53 1016.80 1017.48 1016.77 1017.09
1007.37 1004.94 1002.88 1001.85 1001.31 1001.26 1001.67 1002.35 1002.60 1003.00 1003.62 1004.46 1005.58 1006.52 1007.28 1007.87 1008.27 1008.51 1008.75 1009.12 1009.47 1009.86 1010.78 1011.15 1011.75 1012.21 1012.60 1013.06 1013.33 1013.54 1013.71 1013.86 1014.16 1014.59 1014.68 1014.87 1014.99 1015.47 1015.31 1015.25 1015.56 1015.91 1015.98 1016.09 1016.32 1016.75 1017.22 1016.99 1017.29
1005.88 1004.53 1003.46 1002.26 1002.16 1002.11 1002.13 1002.83 1002.98 1003.86 1003.96 1004.71 1005.59 1006.55 1007.06 1007.46 1007.74 1008.09 1008.41 1008.83 1009.13 1009.54 1010.07 1010.63 1011.54 1011.97 1012.33 1012.82 1013.13 1013.19 1013.06 1013.22 1013.64 1014.05 1014.26 1014.41 1014.40 1014.64 1014.83 1014.84 1015.06 1015.21 1015.29 1015.26 1015.78 1016.22 1016.40 1016.14 1016.98
1004.28 1004.24 1003.55 1003.03 1002.47 1002.87 1002.88 1003.67 1004.04 1004.29 1004.36 1004.94 1005.70 1006.38 1006.75 1007.11 1007.28 1007.70 1008.04 1008.44 1008.84 1009.32 1009.63 1010.42 1010.96 1011.24 1011.83 1012.21 1012.52 1012.53 1012.62 1012.70 1013.40 1013.54 1013.77 1014.11 1014.37 1014.39 1014.31 1014.61 1014.66 1014.53 1014.42 1014.80 1015.24 1015.61 1015.44 1016.08 1016.82
1004.75 1004.53 1004.38 1002.83 1003.06 1003.48 1003.58 1004.15 1004.03 1004.53 1004.82 1005.01 1005.50 1006.06 1006.41 1006.77 1007.00 1007.33 1007.72 1008.02 1008.67 1009.16 1009.63 1010.12 1010.52 1010.97 1011.46 1011.92 1012.30 1012.40 1012.50 1012.70 1012.83 1013.04 1013.32 1013.54 1013.76 1013.94 1014.13 1014.51 1014.57 1014.39 1014.45 1014.41 1014.94 1015.01 1015.26 1015.50 1015.93
1005.47 1004.99 1004.34 1003.54 1003.06 1003.32 1003.80 1004.45 1004.27 1004.51 1004.69 1005.03 1005.23 1005.80 1006.23 1006.53 1006.79 1007.00 1007.32 1007.82 1008.34 1008.92 1009.46 1009.98 1010.33 1010.88 1011.29 1011.72 1012.12 1012.39 1012.42 1012.55 1012.56 1012.61 1012.84 1012.97 1013.18 1013.36 1013.68 1014.01 1014.16 1014.12 1014.11 1014.24 1014.41 1014.60 1014.89 1014.95 1015.49
1006.25 1005.08 1004.02 1002.93 1002.20 1003.08 1003.62 1004.06 1004.05 1004.02 1004.50 1004.84 1004.88 1005.41 1005.94 1006.26 1006.53 1006.73 1007.09 1007.41 1007.95 1008.52 1008.98 1009.47 1009.97 1010.63 1011.08 1011.49 1011.99 1012.36 1012.54 1012.54 1012.28 1012.25 1012.34 1012.44 1012.68 1012.86 1013.21 1013.51 1013.79 1013.87 1014.08 1013.96 1013.86 1014.08 1014.31 1014.33 1014.45
1004.09 1002.82 1002.84 1001.62 1000.88 1002.21 1002.79 1003.56 1003.54 1003.40 1003.92 1004.12 1004.46 1004.89 1005.31 1005.79 1005.88 1006.24 1006.69 1007.01 1007.66 1008.17 1008.78 1009.33 1009.77 1010.26 1010.86 1011.39 1011.87 1012.24 1012.33 1012.24 1012.14 1012.03 1011.75 1011.81 1012.06 1012.22 1012.56 1013.00 1013.33 1013.42 1013.78 1013.70 1013.67 1013.63 1013.70 1013.87 1013.93
1002.26 1001.32 1000.76 1000.24 1000.15 1000.39 1002.42 1004.44 1003.26 1002.59 1002.43 1002.75 1003.44 1004.16 1004.51 1005.00 1005.37 1005.92 1006.30 1006.86 1007.42 1007.96 1008.32 1008.92 1009.34 1009.72 1010.14 1010.51 1010.93 1011.35 1011.62 1011.70 1011.61 1011.48 1011.24 1011.16 1011.43 1011.63 1012.00 1012.52 1012.82 1013.18 1013.41 1013.48 1013.50 1013.63 1013.75 1013.73 1013.70
1000.48 1000.28 1000.24 1000.32 1000.24 1001.13 1002.26 1003.80 1002.96 1002.13 1001.57 1001.87 1002.30 1002.85 1003.56 1003.99 1004.67 1005.20 1005.57 1005.90 1006.49 1007.23 1007.71 1008.10 1008.39 1008.82 1009.25 1009.66 1010.24 1010.62 1011.01 1011.26 1011.26 1011.15 1010.96 1010.72 1010.61 1010.91 1011.16 1011.48 1012.03 1012.38 1012.79 1013.07 1013.16 1013.20 1013.50 1013.70 1013.66
999.82 999.30 999.86 1000.18 1001.28 1002.61 1002.75 1004.09 1002.95 1002.24 1001.80 1001.72 1001.56 1002.22 1002.57 1003.06 1003.46 1004.09 1004.62 1005.05 1005.36 1006.00 1006.67 1007.23 1007.54 1007.85 1008.14 1008.62 1009.21 1009.68 1009.98 1010.35 1010.32 1010.29 1010.15 1010.12 1009.87 1010.21 1010.42 1010.79 1011.24 1011.58 1011.97 1012.30 1012.47 1012.66 1012.84 1013.12 1013.27
998.88 998.53 999.66 1000.70 1002.14 1003.38 1004.48 1004.67 1003.02 1002.22 1002.02 1001.66 1001.25 1001.50 1001.71 1001.91 1002.14 1002.82 1003.52 1003.89 1004.18 1004.50 1005.34 1006.02 1006.75 1007.21 1007.49 1008.00 1008.20 1008.59 1009.06 1009.26 1009.40 1009.58 1009.70 1009.61 1009.49 1009.52 1009.84 1010.03 1010.31 1010.71 1010.98 1011.23 1011.43 1011.72 1012.07 1012.20 1012.41
998.04 998.62 1000.29 1001.54 1002.76 1004.12 1004.24 1004.33 1003.01 1002.15 1001.51 1001.15 1000.86 1000.58 1000.65 1001.14 1001.11 1001.48 1001.85 1002.71 1003.50 1004.02 1004.22 1004.96 1005.76 1005.90 1006.62 1007.10 1007.56 1007.93 1008.20 1008.60 1009.10 1009.35 1009.49 1009.53 1009.34 1009.37 1009.36 1009.45 1009.58 1009.80 1010.10 1010.36 1010.59 1010.93 1011.14 1011.36 1011.48
998.06 998.86 1000.56 1002.73 1003.61 1003.41 1002.69 1003.78 1002.23 1000.85 1000.26 1000.04 1000.07 1000.09 1000.07 1000.19 1000.46 1000.69 1001.00 1002.10 1003.54 1004.35 1004.16 1004.22 1004.86 1005.43 1005.68 1006.15 1006.87 1007.31 1007.78 1008.22 1008.51 1008.88 1009.12 1009.21 1009.19 1009.13 1009.03 1009.13 1009.20 1009.28 1009.31 1009.41 1009.82 1010.03 1010.29 1010.38 1010.74
998.02 998.85 999.92 1001.46 1002.88 1003.22 1002.60 1002.38 1001.02 1000.07 999.64 999.56 999.34 999.66 999.92 1000.06 999.94 1000.84 1002.14 1003.52 1003.75 1003.32 1004.72 1005.15 1003.76 1004.75 1005.43 1005.81 1005.82 1006.45 1006.86 1007.33 1007.67 1008.02 1008.38 1008.66 1008.66 1008.50 1008.50 1008.67 1008.71 1008.76 1008.86 1008.90 1008.84 1009.06 1009.22 1009.46 1009.66
997.88 998.35 998.81 1000.28 1001.83 1003.44 1003.02 1001.86 1000.77 1000.07 1000.00 999.98 999.63 999.66 999.95 1000.77 1001.64 1001.46 1002.16 1001.64 1002.48 1003.20 1001.78 1002.54 1003.70 1003.79 1004.70 1005.26 1005.68 1005.99 1006.54 1006.93 1007.20 1007.40 1007.56 1007.74 1007.85 1007.96 1008.03 1008.16 1008.30 1008.26 1008.18 1008.20 1008.19 1008.23 1008.22 1008.42 1008.73
997.45 997.84 998.68 1000.09 1001.78 1003.19 1003.20 1002.20 1001.32 1000.52 1000.56 999.92 999.79 1000.24 1000.56 1000.80 1001.57 1002.32 1002.59 1002.76 1003.14 1002.55 1002.00 1002.64 1003.44 1003.56 1004.38 1005.22 1006.04 1006.00 1006.40 1007.05 1007.39 1007.64 1007.67 1007.54 1007.39 1007.42 1007.55 1007.65 1007.75 1007.70 1007.57 1007.56 1007.68 1007.61 1007.52 1007.66 1007.71
997.94 998.30 999.10 1000.26 1001.50 1002.97 1003.57 1002.53 1000.33 1000.53 1000.26 1000.15 1000.47 1000.73 1000.87 1001.05 1001.45 1001.99 1002.44 1002.70 1002.54 1002.07 1003.00 1002.98 1003.46 1004.06 1004.62 1005.01 1005.23 1005.42 1005.88 1006.37 1007.08 1007.56 1007.63 1007.61 1007.41 1007.12 1006.94 1006.96 1007.10 1007.18 1007.16 1006.97 1006.97 1006.99 1007.01 1007.01 1007.11
997.90 998.41 999.20 1000.82 1001.84 1002.30 1002.22 1002.33 1000.90 1000.46 1000.62 1001.15 1001.42 1001.56 1001.51 1001.61 1001.43 1001.45 1001.72 1002.00 1001.95 1002.27 1003.60 1004.01 1003.97 1004.34 1005.01 1005.40 1005.54 1005.56 1004.95 1005.20 1006.15 1006.90 1007.10 1007.27 1007.14 1006.81 1006.48 1006.40 1006.49 1006.61 1006.56 1006.53 1006.30 1006.29 1006.23 1006.42 1006.61
Wind_Speed
6 7 5 7 7 2 3 5 10 13 9 7 16 14 15 11 3 6 15 19 20 15 14 13 14 16 16 16 15 15 15 13 12 11 11 11 10 9 8 9 9 10 9 8 8 8 8 8 6
4 10 1 2 2 2 3 9 15 13 7 9 17 19 17 15 10 16 14 21 18 16 13 11 14 16 15 15 14 14 13 13 12 10 9 8 8 9 7 6 7 7 6 6 6 7 7 7 6
5 6 3 5 2 1 7 11 11 7 8 9 8 9 10 11 19 17 20 21 19 15 13 13 15 16 16 15 14 13 12 12 11 10 9 7 6 9 7 6 6 5 5 5 5 6 8 8 6
5 3 3 2 6 7 11 8 9 8 11 18 16 12 9 17 10 18 24 23 19 16 15 16 17 17 16 15 14 12 11 11 10 10 8 6 6 6 6 6 5 4 5 4 4 4 7 6 6
3 1 1 4 8 10 10 14 12 12 20 20 19 13 10 18 21 26 25 21 19 16 15 14 16 15 15 15 14 12 11 11 10 8 7 6 6 5 5 6 5 5 5 5 6 5 5 5 5
6 3 4 2 10 9 7 9 15 13 20 19 19 13 7 17 17 17 21 20 22 19 15 14 16 16 15 15 14 13 12 11 10 9 8 7 7 6 6 6 7 7 7 7 8 7 5 5 5
6 1 5 2 12 14 6 8 9 10 13 16 15 14 8 10 12 10 18 22 20 18 17 14 11 13 15 14 14 13 12 11 10 9 8 8 8 8 7 7 7 7 8 8 7 7 6 5 5
6 5 6 4 11 6 8 14 14 11 7 21 21 7 13 12 12 9 17 20 20 18 15 14 13 11 9 9 15 14 14 13 11 9 10 10 9 8 9 8 8 10 9 9 8 7 6 5 6
2 4 6 4 10 5 8 10 10 8 10 12 6 18 20 17 14 7 12 18 17 15 16 14 13 11 11 9 11 15 16 15 14 12 13 10 4 6 8 9 11 12 13 12 10 8 7 6 7
4 3 6 5 6 9 9 12 9 8 16 19 19 19 18 17 15 9 7 18 19 19 17 15 14 13 12 11 10 8 8 6 5 6 6 5 7 6 11 12 16 16 15 13 11 10 9 6 4
2 4 5 8 7 9 13 12 7 9 12 20 23 19 17 15 10 10 7 8 17 19 15 17 15 14 14 11 8 6 6 6 6 9 8 8 6 7 6 3 5 6 12 5 7 6 3 1 3
10 11 12 4 3 2 9 11 10 16 13 19 19 17 13 15 11 12 8 10 7 15 18 20 17 15 13 6 9 9 7 7 6 8 10 6 4 4 5 5 6 6 5 7 5 4 5 5 4
9 17 8 10 1 2 14 10 4 16 18 19 19 16 12 10 10 10 9 11 8 7 14 16 15 12 10 11 8 7 10 9 9 7 9 5 5 5 6 6 7 7 6 6 4 5 4 4 5
7 11 5 2 10 7 8 6 4 13 17 16 16 11 11 11 10 8 9 12 10 10 9 11 15 10 8 7 7 4 4 4 8 6 6 6 6 4 4 4 7 7 7 8 6 8 9 7 6
3 3 6 4 3 4 4 5 3 3 14 15 13 10 10 10 9 9 9 8 10 10 10 10 11 10 8 7 6 3 0 1 6 8 9 8 6 5 2 1 2 3 3 5 5 7 5 4 5
6 5 2 6 3 0 8 7 8 6 1 12 13 11 9 9 10 9 8 9 10 8 9 10 9 9 8 7 5 3 3 3 2 4 8 11 9 7 5 3 3 4 4 3 5 4 4 5 5
6 2 5 5 5 9 4 6 9 5 4 7 9 9 9 8 8 8 9 9 10 9 10 9 9 10 9 8 5 5 5 4 4 3 5 11 10 9 6 5 5 6 4 4 4 4 4 4 5
3 5 8 7 12 12 7 6 6 8 8 10 11 10 9 9 8 10 10 9 10 10 10 10 8 10 11 7 5 4 4 5 5 5 5 7 9 11 7 6 6 5 4 5 4 4 3 3 3
8 12 19 15 13 14 15 9 10 11 9 13 12 10 10 10 10 11 9 9 12 11 10 10 9 9 9 6 6 4 7 4 4 5 8 7 8 10 9 7 7 6 5 6 5 3 4 2 2
16 5 5 5 9 4 17 6 15 15 11 15 18 14 13 10 9 11 10 9 13 12 13 10 10 9 11 9 8 4 5 5 7 7 9 10 9 11 10 9 7 6 5 6 6 5 3 3 4
4 3 1 6 5 14 10 13 9 10 7 13 18 18 15 16 14 15 14 14 14 15 15 15 15 14 12 11 8 4 3 3 3 4 5 9 9 8 11 11 8 7 6 5 7 7 7 7 4
3 6 4 10 8 3 4 3 4 5 5 7 7 16 16 16 16 17 17 15 16 17 17 17 17 17 15 15 11 10 9 9 6 5 5 6 10 10 8 9 11 11 8 8 6 6 7 5 9
6 6 12 10 4 5 4 6 9 5 5 8 9 13 12 16 17 21 21 20 19 16 19 19 18 17 17 15 15 10 9 8 5 4 7 7 8 12 11 11 10 10 8 10 11 9 6 5 6
8 6 10 5 5 2 10 7 5 4 7 7 7 9 10 12 18 16 23 21 18 16 17 19 19 20 17 17 16 15 14 9 5 6 3 2 4 4 7 11 12 12 10 10 9 9 9 9 5
2 5 2 2 3 7 12 2 10 9 7 6 13 9 13 13 13 11 21 14 12 9 15 15 18 18 17 17 14 15 11 8 8 6 4 4 4 4 6 8 9 9 11 11 9 10 10 10 9
6 6 5 3 1 2 12 5 5 6 5 5 2 6 9 8 9 3 21 16 6 5 14 12 18 15 14 16 14 12 11 7 6 6 5 5 4 4 4 6 7 7 8 9 9 8 8 9 9
7 3 7 2 9 7 4 3 6 5 5 5 3 8 6 11 11 9 7 19 16 14 28 16 15 15 15 14 10 8 7 7 6 7 6 5 5 4 5 3 4 6 7 7 8 8 9 8 8
3 5 9 6 2 5 2 5 7 5 7 5 2 8 8 8 11 11 9 12 15 23 24 9 11 14 11 9 6 6 6 5 5 4 6 6 6 4 6 6 6 6 6 6 6 7 7 9 8
5 7 5 3 6 7 5 8 6 6 7 6 8 8 8 7 6 8 9 13 17 17 4 7 10 9 8 8 8 8 7 7 6 6 6 6 6 7 7 7 6 7 7 7 6 7 8 10 9
3 4 4 6 9 1 5 4 6 1 7 11 11 8 9 8 6 4 4 5 5 7 6 6 6 7 6 6 6 7 8 8 8 7 7 7 8 7 7 6 6 7 7 7 7 7 6 7 7
Wind_Direction
177 227 302 24 50 94 274 86 87 76 56 45 83 76 74 47 116 138 129 120 130 134 137 137 142 149 155 144 141 140 140 139 139 139 139 135 130 123 114 115 111 112 122 120 118 115 117 115 124
254 194 201 146 285 183 13 80 90 93 124 103 96 91 70 73 86 119 112 128 130 133 134 136 137 142 143 146 146 147 149 150 151 157 149 153 162 141 138 130 119 118 122 115 119 121 124 118 121
217 270 144 163 236 268 96 87 94 129 150 114 66 50 75 117 122 139 132 134 131 136 132 138 134 136 143 144 147 149 153 154 156 158 151 150 162 141 144 145 136 131 130 128 142 145 137 133 133
227 128 307 200 154 111 118 125 128 107 91 95 107 66 106 129 109 135 142 135 136 137 132 140 137 138 142 144 148 151 161 156 166 156 151 153 152 151 160 171 161 158 155 151 161 144 135 140 143
13 311 331 255 83 89 119 142 136 102 88 96 99 109 86 105 122 134 139 140 134 129 134 139 141 138 141 141 143 151 159 161 164 156 160 171 169 176 192 202 179 182 166 163 172 168 153 152 169
53 12 335 148 114 73 46 95 99 102 107 108 106 108 98 125 134 141 143 129 132 136 139 144 144 145 145 145 148 155 161 167 171 174 180 183 196 199 198 192 182 177 176 173 172 181 166 171 189
95 55 237 12 109 92 70 66 112 111 129 134 125 116 138 131 147 143 134 133 134 138 143 141 145 150 154 159 160 165 173 180 182 189 192 200 200 201 198 195 172 171 180 188 190 184 184 207 218
136 184 292 188 98 83 80 74 91 93 101 128 136 147 153 156 153 152 128 138 138 141 145 151 153 157 163 172 173 177 184 190 193 193 203 207 206 210 206 195 184 186 196 194 199 203 208 221 245
51 282 309 302 105 136 125 105 100 144 85 50 120 136 142 149 139 157 131 141 139 148 156 163 159 166 172 175 186 188 188 190 193 197 202 206 203 208 212 205 205 197 202 203 209 202 212 225 243
103 159 236 81 137 149 158 128 126 130 109 93 104 119 140 147 149 165 150 151 155 158 164 164 167 175 176 180 181 179 195 193 191 197 199 197 210 208 204 208 206 206 212 211 209 208 213 229 220
22 229 280 51 46 12 136 117 117 126 123 129 132 139 149 146 157 155 178 164 165 164 167 167 172 181 181 180 168 182 193 196 199 208 191 202 221 211 199 183 193 206 216 218 204 216 145 254 273
317 262 256 67 102 27 98 126 113 95 121 131 134 141 149 156 164 169 178 165 177 159 172 167 172 180 180 174 173 185 188 196 198 206 195 195 199 197 204 171 187 197 215 220 201 172 143 200 155
279 275 310 149 129 43 75 46 322 105 108 121 129 141 152 167 170 172 173 168 168 157 170 169 171 179 181 163 180 189 195 198 187 185 191 191 197 192 212 199 192 198 212 219 182 142 196 179 174
209 258 7 168 84 62 87 55 48 90 114 116 128 149 168 169 179 170 173 173 163 162 175 139 157 174 166 151 173 194 165 189 174 177 191 205 197 212 226 171 187 195 200 217 155 161 190 208 157
142 74 324 54 140 108 98 27 319 50 127 136 141 158 181 170 170 166 175 158 153 165 166 145 152 137 137 135 140 139 225 300 163 184 180 197 218 199 238 234 310 252 252 151 164 185 197 194 164
350 62 18 252 169 143 93 254 269 142 167 146 155 167 173 178 163 168 161 155 140 153 153 150 150 148 142 146 154 171 234 241 256 197 181 193 204 197 192 222 248 265 264 214 201 198 200 211 168
303 53 248 306 190 164 131 259 251 252 162 170 152 158 169 178 167 167 161 160 155 167 157 160 151 160 161 164 164 184 221 251 238 243 189 193 198 198 181 190 225 246 259 251 233 218 190 221 171
348 263 257 243 190 179 139 231 251 215 203 186 155 163 176 179 179 171 167 168 168 153 158 157 161 165 169 164 167 182 211 235 232 236 229 213 197 190 183 194 204 228 243 264 253 226 205 201 168
231 209 233 235 168 154 189 182 205 211 208 183 160 168 174 182 184 171 172 178 166 157 157 163 167 159 164 168 178 187 208 218 223 230 237 230 200 197 191 197 205 211 224 232 250 226 202 221 167
252 306 350 97 168 155 174 115 209 205 176 171 165 175 180 181 173 170 174 177 165 168 171 171 172 169 178 180 188 186 194 210 216 219 226 230 194 200 200 200 201 204 215 235 238 229 238 246 182
241 226 281 207 58 64 96 179 167 202 176 181 172 178 177 184 175 176 183 182 172 180 179 184 185 184 186 179 180 189 185 235 217 227 228 228 211 190 196 200 199 202 198 220 234 230 214 241 244
47 239 348 148 72 145 75 143 279 202 118 156 196 183 182 187 182 178 186 189 188 185 186 187 192 193 193 187 188 192 204 214 214 213 216 218 205 206 195 191 201 210 211 220 215 225 232 203 235
229 247 125 105 87 80 25 89 259 146 191 198 219 178 187 186 185 182 189 194 198 186 186 190 193 197 198 191 196 191 199 208 204 219 229 227 211 201 204 209 206 206 207 221 219 223 213 206 215
268 281 81 55 127 76 188 154 267 217 196 206 197 200 186 189 193 187 190 190 195 200 191 189 193 199 195 193 196 201 211 209 216 239 206 237 227 219 214 211 214 218 222 223 223 231 227 228 218
148 323 122 271 341 226 151 129 231 204 195 207 187 212 180 197 193 200 190 179 186 217 208 190 193 205 198 187 191 200 200 189 199 212 213 236 237 226 227 216 221 220 220 222 225 235 234 242 242
285 186 175 242 270 271 133 157 250 187 193 245 266 270 221 214 206 104 102 90 281 57 296 282 189 198 192 192 180 188 193 200 197 197 203 226 227 232 222 220 231 228 225 232 223 226 232 235 240
289 352 246 270 119 69 224 337 18 171 192 245 218 23 10 53 105 100 82 158 172 176 224 216 207 184 182 186 183 172 177 182 191 206 208 214 224 232 254 257 242 244 246 232 221 229 235 230 235
224 258 354 346 49 83 31 169 206 187 213 153 149 66 68 65 94 125 136 154 180 202 227 192 189 168 159 149 172 166 166 185 206 218 226 222 231 231 255 261 262 264 241 242 231 236 230 224 232
354 346 1 97 95 122 177 276 227 157 168 113 88 85 76 56 67 128 172 180 199 216 207 179 150 138 158 170 164 163 172 182 199 222 236 236 238 234 237 236 247 253 254 242 236 239 237 228 230
271 53 65 99 316 307 116 274 79 211 53 66 65 55 38 27 30 11 58 119 123 139 172 141 132 151 153 160 163 183 178 176 187 210 223 230 235 226 221 233 247 251 242 248 235 240 226 224 227